Location: Guadanolo
(41.9167°N, 12.9333°E)
Time: 15:56:38
(UTC+00:00)

Cosmos 389 Rocket - Pass Details

Date: 16 September 2019
Orbit: 444 x 478 km, 81.1° (Epoch: 21 October)

Event Time Altitude Azimuth Distance (km) Brightness Sun altitude
Rises 18:59:41 0° 354° (N) 2,454 6.5 -19.4°
Reaches altitude 10° 19:01:48 10° 359° (N) 1,576 5.4 -19.8°
Enters shadow 19:04:24 43° 30° (NNE) 639 3.0 -20.2°
